Hervey Bay Observation History
Time Wind Speed Temp Pressure Rel. Hum Rain
14/09:30am SSW 5-7 kts 19.0°c 1015.3 hPa 55% 0.0mm
14/09:00am SW 7-9 kts 18.1°c 1015.1 hPa 58% 0.2mm
14/08:30am SW 5-8 kts 17.2°c 1015.0 hPa 63% 0.2mm
14/08:00am SW 5-7 kts 15.7°c 1014.8 hPa 70% 0.2mm
14/07:30am WSW 4-6 kts 13.8°c 1014.4 hPa 80% 0.2mm
14/07:00am WSW 2-4 kts 11.5°c 1013.9 hPa 92% 0.2mm
14/06:30am W 1-3 kts 10.2°c 1013.6 hPa 91% 0.2mm
14/06:00am SSW 2-4 kts 10.0°c 1013.2 hPa 91% 0.2mm
14/05:30am SSW 4-6 kts 10.0°c 1012.8 hPa 92% 0.2mm
14/05:00am S 4-5 kts 10.5°c 1012.6 hPa 92% 0.2mm
14/04:30am SW 3-4 kts 10.3°c 1012.6 hPa 94% 0.2mm
14/04:00am W 3-4 kts 10.4°c 1012.5 hPa 91% 0.2mm
14/03:30am WSW 2-4 kts 11.5°c 1012.3 hPa 85% 0.2mm
14/03:00am SSW 4-5 kts 13.0°c 1012.2 hPa 78% 0.2mm
14/02:30am S 5-8 kts 14.4°c 1012.3 hPa 68% 0.2mm
14/02:00am SW 7-10 kts 15.7°c 1012.5 hPa 64% 0.2mm
14/01:30am WSW 6-10 kts 15.0°c 1012.6 hPa 69% 0.2mm
14/01:00am SW 7-9 kts 15.5°c 1012.9 hPa 66% 0.2mm
14/12:30am SW 7-11 kts 16.2°c 1013.1 hPa 64% 0.2mm
14/12:00am SW 7-11 kts 16.7°c 1013.2 hPa 62% 0.2mm
Time Wind Speed Temp Pressure Rel. Hum Rain
13/11:30pm SW 8-13 kts 16.9°c 1013.4 hPa 63% 0.2mm
13/11:00pm SW 7-11 kts 16.7°c 1013.5 hPa 67% 0.2mm
13/10:30pm SW 4-7 kts 16.6°c 1013.4 hPa 71% 0.2mm
13/10:00pm SW 4-5 kts 16.6°c 1013.3 hPa 75% 0.2mm
13/09:30pm SSW 4-5 kts 16.8°c 1013.2 hPa 76% 0.2mm
13/09:00pm SW 5-7 kts 17.5°c 1013.2 hPa 78% 0.2mm
13/08:30pm SW 4-5 kts 16.7°c 1013.3 hPa 87% 0.2mm
13/08:00pm SW 5-6 kts 17.0°c 1013.0 hPa 87% 0.2mm
13/07:30pm SSW 3-4 kts 17.9°c 1012.7 hPa 90% 0.2mm
13/07:00pm SW 3-4 kts 18.8°c 1012.2 hPa 91% 0.2mm
13/06:30pm SSE 2-4 kts 19.9°c 1012.0 hPa 91% 0.2mm
13/06:00pm WNW 3-4 kts 20.4°c 1011.6 hPa 87% 0.2mm
13/05:30pm N 4 kts 22.2°c 1011.2 hPa 82% 0.2mm
13/05:00pm N 3-4 kts 23.8°c 1010.8 hPa 76% 0.2mm
13/04:30pm NNE 4-5 kts 24.7°c 1010.5 hPa 72% 0.2mm
13/04:00pm NNE 4-5 kts 24.9°c 1010.2 hPa 68% 0.2mm
13/03:30pm NNE 4-7 kts 25.1°c 1010.3 hPa 68% 0.2mm
13/03:00pm N 6-8 kts 25.7°c 1010.3 hPa 66% 0.2mm
13/02:30pm N 5-6 kts 25.9°c 1010.4 hPa 68% 0.2mm
13/02:00pm N 6-8 kts 25.7°c 1010.7 hPa 66% 0.2mm
13/01:30pm N 5-7 kts 25.5°c 1011.0 hPa 67% 0.2mm
13/01:00pm NNE 7-11 kts 25.1°c 1011.3 hPa 65% 0.2mm
13/12:30pm N 6-8 kts 25.0°c 1011.9 hPa 69% 0.2mm
13/12:00pm NNE 6-9 kts 25.2°c 1012.4 hPa 73% 0.2mm
13/11:30am W 4-6 kts 24.5°c 1013.0 hPa 71% 0.2mm
13/11:00am SSW 4-5 kts 24.4°c 1013.3 hPa 72% 0.2mm
13/10:30am SSW 4-7 kts 24.1°c 1013.7 hPa 73% 0.2mm
13/10:00am SW 3-6 kts 23.5°c 1014.0 hPa 76% 0.0mm
13/09:30am SW 4-6 kts 23.1°c 1014.1 hPa 79% 0.0mm
13/09:00am SW 6-8 kts 21.8°c 1014.1 hPa 83% 0.8mm
13/08:30am SW 8-10 kts 21.0°c 1014.0 hPa 87% 0.8mm
13/08:00am SW 8-11 kts 19.6°c 1013.9 hPa 91% 0.8mm
13/07:30am SSW 5-7 kts 18.7°c 1013.7 hPa 95% 0.8mm
13/07:00am SW 5-8 kts 18.2°c 1013.5 hPa 96% 0.8mm
13/06:49am SW 6-9 kts 18.1°c 1013.5 hPa 96% 0.8mm
13/06:30am SW 6-9 kts 18.0°c 1013.6 hPa 97% 0.8mm
13/06:00am SW 5-8 kts 18.0°c 1013.1 hPa 97% 0.8mm
13/05:59am SW 5-8 kts 18.0°c 1013.1 hPa 97% 0.8mm
13/05:53am SW 5-7 kts 18.0°c 1013.0 hPa 96% 0.8mm
13/05:30am SSW 6-8 kts 18.1°c 1012.8 hPa 97% 0.8mm
13/05:18am SW 7-10 kts 18.1°c 1012.8 hPa 97% 0.8mm
13/05:00am SW 5-7 kts 18.1°c 1012.9 hPa 97% 0.8mm
13/04:30am SW 4-5 kts 18.2°c 1012.9 hPa 96% 0.8mm
13/04:02am S 2-4 kts 18.3°c 1012.8 hPa 96% 0.8mm
13/04:00am SSW 3-4 kts 18.3°c 1012.8 hPa 96% 0.8mm
13/03:30am SSW 5-8 kts 18.4°c 1012.8 hPa 96% 0.8mm
13/03:00am SSW 6-7 kts 18.4°c 1013.1 hPa 96% 0.8mm
13/02:31am SW 5-8 kts 18.3°c 1013.2 hPa 95% 0.8mm
13/02:30am SW 5-8 kts 18.3°c 1013.2 hPa 95% 0.8mm
13/02:00am SW 4-6 kts 18.7°c 1013.1 hPa 95% 0.8mm
13/01:30am S 4-6 kts 18.6°c 1013.5 hPa 94% 0.8mm
13/01:00am SSW 5-6 kts 18.5°c 1013.6 hPa 92% 0.8mm
13/12:30am S 6-8 kts 18.6°c 1013.7 hPa 91% 0.8mm
13/12:00am S 6-9 kts 18.6°c 1014.3 hPa 91% 0.8mm
Time Wind Speed Temp Pressure Rel. Hum Rain
12/11:30pm SW 7-11 kts 18.5°c 1015.0 hPa 92% 0.8mm
12/11:00pm S 5-7 kts 18.5°c 1014.8 hPa 92% 0.8mm
12/10:30pm SSW 7-9 kts 18.6°c 1014.9 hPa 93% 0.8mm
12/10:12pm SSW 8-12 kts 18.6°c 1015.0 hPa 91% 0.8mm
12/10:00pm SW 8-13 kts 19.3°c 1015.1 hPa 89% 0.8mm
12/09:54pm SW 9-15 kts 19.6°c 1015.0 hPa 87% 0.6mm
12/09:30pm SSW 13-20 kts 20.8°c 1015.3 hPa 88% 0.0mm
12/09:26pm SSW 10-19 kts 20.4°c 1015.3 hPa 89% 0.0mm
12/09:00pm SSW 5-8 kts 21.1°c 1014.9 hPa 96% 0.0mm
12/08:30pm SW 4-5 kts 20.5°c 1014.9 hPa 94% 0.0mm
12/08:00pm ESE 2-4 kts 20.8°c 1014.2 hPa 91% 0.0mm
12/07:30pm E 5-6 kts 22.2°c 1013.5 hPa 93% 0.0mm
12/07:00pm ESE 3-5 kts 21.6°c 1013.7 hPa 90% 0.0mm
12/06:30pm ENE 5-6 kts 23.0°c 1014.1 hPa 90% 0.0mm
12/06:00pm E 5-6 kts 23.4°c 1014.0 hPa 88% 0.0mm
12/05:30pm NNE 4-5 kts 24.0°c 1013.8 hPa 84% 0.0mm
12/05:00pm N 5-7 kts 24.5°c 1013.5 hPa 81% 0.0mm
12/04:30pm N 7-9 kts 25.3°c 1013.4 hPa 77% 0.0mm
12/04:00pm N 6-9 kts 25.8°c 1013.3 hPa 72% 0.0mm
12/03:30pm NNE 9-12 kts 26.2°c 1013.1 hPa 74% 0.0mm
12/03:00pm N 9-12 kts 26.3°c 1012.9 hPa 71% 0.0mm
12/02:30pm N 8-12 kts 27.0°c 1013.0 hPa 69% 0.0mm
12/02:00pm N 8-11 kts 27.6°c 1013.2 hPa 65% 0.0mm
12/01:30pm NNW 5-8 kts 27.8°c 1013.6 hPa 64% 0.0mm
12/01:00pm N 6-8 kts 27.4°c 1014.0 hPa 68% 0.0mm
12/12:30pm NNW 7-10 kts 27.2°c 1014.6 hPa 69% 0.0mm
12/12:00pm NNE 8-11 kts 26.6°c 1015.2 hPa 69% 0.0mm
12/11:30am N 9-11 kts 26.8°c 1015.9 hPa 72% 0.0mm
12/11:00am NNE 7-11 kts 26.7°c 1016.3 hPa 72% 0.0mm
12/10:30am NNE 6-9 kts 26.4°c 1016.4 hPa 71% 0.0mm
12/10:00am S 3-6 kts 25.8°c 1016.6 hPa 80% 0.0mm
12/09:30am SW 4-5 kts 24.1°c 1016.8 hPa 84% 0.0mm
12/09:00am SSW 4-6 kts 23.0°c 1016.9 hPa 89% 0.2mm
12/08:30am SW 4-5 kts 21.5°c 1017.0 hPa 94% 0.2mm
12/08:24am SW 4-5 kts 21.5°c 1017.0 hPa 95% 0.2mm
12/08:00am SW 5-8 kts 20.5°c 1016.9 hPa 97% 0.2mm
12/07:44am SSW 4-6 kts 19.8°c 1016.8 hPa 97% 0.2mm
12/07:30am SSW 4-5 kts 19.4°c 1016.6 hPa 97% 0.2mm
12/07:00am SW 3-5 kts 19.1°c 1016.4 hPa 98% 0.2mm
12/06:30am SW 3-5 kts 18.5°c 1016.3 hPa 97% 0.2mm
12/06:00am SW 1-4 kts 18.2°c 1015.9 hPa 97% 0.2mm
12/05:33am WSW 3-5 kts 18.7°c 1015.6 hPa 97% 0.2mm
12/05:30am W 3-5 kts 18.8°c 1015.6 hPa 97% 0.2mm
12/05:13am SW 4-9 kts 18.9°c 1015.5 hPa 97% 0.2mm
12/05:00am SSW 6-8 kts 19.0°c 1015.5 hPa 97% 0.2mm
12/04:30am SSW 6-8 kts 19.0°c 1015.6 hPa 97% 0.2mm
12/04:00am SW 3-4 kts 18.7°c 1015.2 hPa 97% 0.2mm
12/03:30am WSW 2-6 kts 18.4°c 1015.2 hPa 97% 0.2mm
12/03:00am SW 3-4 kts 19.2°c 1015.2 hPa 97% 0.2mm
12/02:30am SW 4-6 kts 19.4°c 1015.3 hPa 97% 0.2mm
12/02:00am SSW 6-7 kts 19.3°c 1015.4 hPa 97% 0.2mm
12/01:30am CALM 0 kts 18.6°c 1015.5 hPa 96% 0.2mm
12/01:00am CALM 0 kts 18.8°c 1015.7 hPa 96% 0.2mm
12/12:30am CALM 0 kts 19.0°c 1016.1 hPa 96% 0.2mm
12/12:00am CALM 0 kts 18.6°c 1016.5 hPa 96% 0.2mm